CW4629 Weather Reports


time (UTC)temp
C
wind
direction
speed
KPH
gust
KPH
rain 1hr
cm
rain 24hr
cm
rain mn
cm
humidity
%
barometer
mb
20260906223536 22 41 9.7 19.3 0.00 0.00 0.00 69 1019.8
20260906222539 22 47 9.7 16.1 0.00 0.00 0.00 67 1019.9
20260906221635 22 91 11.3 20.9 0.00 0.00 0.00 70 1019.0
20260906220654 22 108 16.1 22.5 0.00 0.00 0.00 71 1018.9
20260906215737 22 83 14.5 20.9 0.00 0.00 0.00 70 1019.5
20260906215637 22 83 14.5 20.9 0.00 0.00 0.00 70 1019.5
20260906213736 22 86 9.7 14.5 0.00 0.00 0.00 68 1019.7
20260906212737 23 86 12.9 19.3 0.00 0.00 0.00 65 1019.5
20260906211835 25 83 16.1 20.9 0.00 0.00 0.00 57 1019.5
20260906210838 25 104 6.4 12.9 0.00 0.00 0.00 55 1019.3
20260906205837 25 87 12.9 16.1 0.00 0.00 0.00 55 1019.1
20260906205735 25 88 12.9 20.9 0.00 0.00 0.00 54 1019.1
20260906204737 25 83 17.7 29.0 0.00 0.00 0.00 54 1019.2
20260906203754 25 79 11.3 17.7 0.00 0.00 0.00 53 1019.1
20260906202754 25 92 14.5 24.1 0.00 0.00 0.00 53 1019.2
20260906201654 26 103 12.9 20.9 0.00 0.00 0.00 52 1019.1
20260906200736 26 82 14.5 22.5 0.00 0.00 0.00 50 1019.0
20260906195738 26 99 16.1 27.4 0.00 0.00 0.00 47 1018.6
20260906194835 26 111 12.9 22.5 0.00 0.00 0.00 49 1018.7
20260906193935 26 102 9.7 20.9 0.00 0.00 0.00 51 1019.2
20260906192936 25 97 11.3 17.7 0.00 0.00 0.00 52 1019.4
20260906191939 25 100 8.0 19.3 0.00 0.00 0.00 53 1019.3
20260906190954 26 99 11.3 17.7 0.00 0.00 0.00 50 1019.4
20260906184937 25 97 8.0 14.5 0.00 0.00 0.00 50 1019.5
20260906183936 26 109 14.5 24.1 0.00 0.00 0.00 51 1019.6
20260906182954 26 135 8.0 17.7 0.00 0.00 0.00 51 1019.5
20260906182036 26 87 11.3 19.3 0.00 0.00 0.00 50 1019.4
20260906180036 26 105 6.4 11.3 0.00 0.00 0.00 50 1019.5
20260906175053 26 88 14.5 24.1 0.00 0.00 0.00 49 1019.6
20260906174954 26 99 6.4 11.3 0.00 0.00 0.00 49 1019.6
20260906174035 26 88 9.7 16.1 0.00 0.00 0.00 47 1019.6
20260906173038 26 122 6.4 12.9 0.00 0.00 0.00 47 1019.5
20260906172035 26 110 9.7 14.5 0.00 0.00 0.00 45 1019.6
20260906171036 26 129 4.8 8.0 0.00 0.00 0.00 44 1019.5
20260906170036 26 135 1.6 3.2 0.00 0.00 0.00 43 1019.5
20260906165953 26 145 1.6 4.8 0.00 0.00 0.00 43 1019.4
20260906164952 26 123 4.8 8.0 0.00 0.00 0.00 40 1019.4
20260906163937 26 112 4.8 11.3 0.00 0.00 0.00 40 1019.4
20260906163853 26 120 4.8 8.0 0.00 0.00 0.00 40 1019.2
20260906162853 26 118 6.4 11.3 0.00 0.00 0.00 39 1019.1
20260906161836 26 224 0.0 0.0 0.00 0.00 0.00 37 1019.1
20260906160850 25 247 3.2 4.8 0.00 0.00 0.00 38 1018.9
20260906154836 23 292 1.6 3.2 0.00 0.00 0.00 40 1018.9
20260906153853 23 247 0.0 0.0 0.00 0.00 0.00 43 1019.0
20260906152837 23 247 0.0 1.6 0.00 0.00 0.00 43 1019.1
20260906152739 23 247 0.0 1.6 0.00 0.00 0.00 43 1019.1
20260906151834 22 247 0.0 0.0 0.00 0.00 0.00 43 1019.1
20260906150851 22 247 0.0 0.0 0.00 0.00 0.00 44 1019.0
20260906145935 22 225 0.0 0.0 0.00 0.00 0.00 44 1018.8
20260906144951 22 225 0.0 0.0 0.00 0.00 0.00 44 1019.0
20260906144035 21 225 0.0 0.0 0.00 0.00 0.00 42 1018.8
20260906142136 21 225 0.0 0.0 0.00 0.00 0.00 44 1018.7
20260906141236 21 180 0.0 0.0 0.00 0.00 0.00 45 1018.5
20260906141138 21 180 0.0 0.0 0.00 0.00 0.00 45 1018.5
20260906140137 21 247 3.2 3.2 0.00 0.00 0.00 45 1018.5
20260906135153 20 315 1.6 3.2 0.00 0.00 0.00 47 1018.4
20260906133251 20 112 0.0 0.0 0.00 0.00 0.00 48 1018.1
20260906132250 20 112 0.0 0.0 0.00 0.00 0.00 48 1018.1
20260906130236 20 112 0.0 0.0 0.00 0.00 0.00 47 1017.7
20260906125336 20 112 0.0 1.6 0.00 0.00 0.00 47 1017.7
20260906124354 20 247 0.0 0.0 0.00 0.00 0.00 47 1017.7
20260906123352 20 247 0.0 0.0 0.00 0.00 0.00 48 1017.6
20260906120536 18 337 1.6 3.2 0.00 0.00 0.00 53 1017.7
20260906115551 19 337 0.0 0.0 0.00 0.00 0.00 51 1017.7
20260906114552 19 337 0.0 0.0 0.00 0.00 0.00 50 1017.5
20260906113635 19 337 0.0 0.0 0.00 0.00 0.00 50 1017.4
20260906112636 19 337 0.0 0.0 0.00 0.00 0.00 50 1017.2
20260906110653 19 337 3.2 4.8 0.00 0.00 0.00 50 1017.1
20260906105736 19 292 1.6 1.6 0.00 0.00 0.00 50 1017.0
20260906104736 19 292 0.0 0.0 0.00 0.00 0.00 49 1017.0
20260906102735 20 270 0.0 0.0 0.00 0.00 0.00 47 1017.1
20260906101736 20 202 0.0 0.0 0.00 0.00 0.00 46 1017.0
20260906100752 20 180 1.6 4.8 0.00 0.00 0.00 43 1016.9
20260906095752 20 22 1.6 3.2 0.00 0.00 0.00 47 1016.8
20260906094736 20 22 3.2 6.4 0.00 0.00 0.00 47 1016.8
20260906093753 20 22 0.0 0.0 0.00 0.00 0.00 45 1016.7
20260906091838 20 112 0.0 0.0 0.00 0.00 0.00 47 1016.7
20260906090852 21 112 0.0 0.0 0.00 0.00 0.00 43 1016.8
20260906085836 21 112 0.0 0.0 0.00 0.00 0.00 40 1016.7
20260906084837 21 225 0.0 0.0 0.00 0.00 0.00 43 1016.7
20260906083934 21 225 0.0 0.0 0.00 0.00 0.00 43 1016.7
20260906082951 21 225 0.0 0.0 0.00 0.00 0.00 42 1016.7
20260906082037 21 210 0.0 0.0 0.00 0.00 0.00 40 1016.7
20260906080135 21 22 0.0 0.0 0.00 0.00 0.00 41 1016.8
20260906075152 21 22 0.0 3.2 0.00 0.00 0.00 41 1016.8
20260906074250 21 22 0.0 0.0 0.00 0.00 0.00 41 1016.8
20260906073250 22 22 0.0 0.0 0.00 0.00 0.00 40 1016.8
20260906072236 22 22 0.0 0.0 0.00 0.00 0.00 38 1016.8
20260906071253 22 22 0.0 0.0 0.00 0.00 0.00 36 1016.8
20260906064335 22 292 0.0 0.0 0.00 0.00 0.00 38 1016.7
20260906063335 22 292 0.0 0.0 0.00 0.00 0.00 38 1016.6
20260906062351 23 292 0.0 0.0 0.00 0.00 0.00 35 1016.7
20260906060435 23 22 0.0 1.6 0.00 0.00 0.00 34 1016.5
20260906055521 24 180 0.0 0.0 0.00 0.00 0.00 32 1016.6
20260906054521 24 201 0.0 0.0 0.00 0.00 0.00 30 1016.6
20260906052622 24 292 0.0 0.0 0.00 0.00 0.00 33 1016.6
20260906051719 24 292 3.2 3.2 0.00 0.00 0.00 33 1016.6
20260906050720 24 22 3.2 3.2 0.00 0.00 0.00 32 1016.4
20260906050619 24 22 3.2 3.2 0.00 0.00 0.00 32 1016.3
20260906045621 24 360 3.2 3.2 0.00 0.00 0.00 32 1016.4
20260906044636 24 270 0.0 3.2 0.00 0.00 0.00 35 1016.3
20260906043719 24 270 0.0 0.0 0.00 0.00 0.00 34 1016.1
20260906043636 25 270 0.0 0.0 0.00 0.00 0.00 34 1016.1
20260906041719 25 247 0.0 0.0 0.00 0.00 0.00 30 1016.1
20260906040719 26 247 0.0 0.0 0.00 0.00 0.00 30 1016.1
20260906035818 26 247 0.0 0.0 0.00 0.00 0.00 28 1016.0
20260906034820 26 247 0.0 0.0 0.00 0.00 0.00 27 1015.9
20260906033819 27 247 0.0 0.0 0.00 0.00 0.00 26 1015.7
20260906032834 27 247 0.0 0.0 0.00 0.00 0.00 25 1015.5
20260906030836 29 180 0.0 0.0 0.00 0.00 0.00 20 1015.5
20260906025920 30 180 0.0 0.0 0.00 0.00 0.00 19 1015.4
20260906024020 30 202 1.6 3.2 0.00 0.00 0.00 17 1015.2
20260906023021 31 225 3.2 4.8 0.00 0.00 0.00 18 1015.2
20260906022020 31 225 1.6 4.8 0.00 0.00 0.00 17 1014.9
20260906021020 31 225 6.4 9.7 0.00 0.00 0.00 16 1014.9
20260906020038 32 239 8.0 12.9 0.00 0.00 0.00 16 1014.9
20260906015118 32 243 8.0 11.3 0.00 0.00 0.00 16 1014.9
20260906014118 32 247 4.8 12.9 0.00 0.00 0.00 15 1014.9
20260906013135 33 226 8.0 14.5 0.00 0.00 0.00 16 1014.9
20260906012219 33 230 9.7 14.5 0.00 0.00 0.00 16 1014.9
20260906011218 33 237 12.9 20.9 0.00 0.00 0.00 16 1014.9
20260906010218 33 209 9.7 16.1 0.00 0.00 0.00 15 1014.9
20260906005235 33 237 14.5 19.3 0.00 0.00 0.00 14 1014.9
20260906004220 33 240 12.9 16.1 0.00 0.00 0.00 14 1014.7
20260906003234 34 231 17.7 22.5 0.00 0.00 0.00 14 1014.7
20260906000219 35 227 12.9 17.7 0.00 0.00 0.00 15 1014.6
20260905235219 34 238 12.9 20.9 0.00 0.00 0.00 15 1014.6
20260905234219 34 230 16.1 22.5 0.00 0.00 0.00 14 1014.6
20260905233218 34 234 19.3 32.2 0.00 0.00 0.00 15 1014.7
20260905232219 35 246 16.1 22.5 0.00 0.00 0.00 15 1014.8
20260905231220 34 201 12.9 25.7 0.00 0.00 0.00 15 1014.9
20260905230237 35 231 24.1 40.2 0.00 0.00 0.00 16 1014.9
20260905225335 35 244 16.1 32.2 0.00 0.00 0.00 15 1014.7
20260905224336 35 238 9.7 16.1 0.00 0.00 0.00 15 1015.0